Wolf Point, MT

11:37 PM MDT on June 18, 2018 (GMT -0600)
Clayton

Weather History for KOLF - August, 2017

Change the Weather History Date:

Sunday, August 13, 2017

  Actual Average Record
Temperature  
Mean Temperature 68 °F -  
Max Temperature 82 °F 87 °F 103 °F (2015)
Min Temperature 53 °F 54 °F 39 °F (2005)
Degree Days  
Heating Degree Days 0    
Cooling Degree Days 3    
Growing Degree Days 18 (Base 50)    
Moisture  
Dew Point 53 °F    
Average Humidity 71    
Maximum Humidity 94    
Minimum Humidity 33    
Precipitation  
Precipitation 0.00 in 0.05 in 0.24 in (2012)
Month to date precipitation 0.47 0.64  
Year to date precipitation 2.38 9.03  
Sea Level Pressure  
Sea Level Pressure 29.92 in    
Wind  
Wind Speed 8 mph (East)    
Max Wind Speed 13 mph    
Max Gust Speed 21 mph    
Visibility 8 miles    
Events      
T = Trace of Precipitation, MM = Missing Value Source: NWS Daily Summary

Daily Weather History Graph

Daily Weather History Graph

Search for Another Location

Airport or City:

Astronomy

Aug. 13, 2017 Rise Set
Actual Time 5:54 AM MDT 8:18 PM MDT
Civil Twilight 5:20 AM MDT 8:52 PM MDT
Nautical Twilight 4:36 AM MDT 9:36 PM MDT
Astronomical Twilight 3:46 AM MDT 10:25 PM MDT
Moon 11:25 PM MDT (8/13) 12:24 PM MDT (8/13)
Length of Visible Light 15h 32m
Length of Day
14h 23m
Waning Gibbous, 65% of the Moon is Illuminated
Aug 13
Waning Gibbous
Aug 14
Last Quarter
Aug 21
New
Aug 29
First Quarter
Sep 6
Full

Hourly Weather History & Observations

Time (MDT) Temp. Dew Point Humidity Pressure Visibility Wind Dir Wind Speed Gust Speed Precip Events Conditions
12:53 AM 55.9 °F 48.9 °F 77% 29.99 in 10.0 mi East 8.1 mph - N/A   Clear
1:53 AM 55.0 °F 51.1 °F 86% 29.98 in 10.0 mi ENE 6.9 mph - N/A   Clear
2:53 AM 54.0 °F 52.0 °F 93% 29.97 in 10.0 mi ENE 4.6 mph - N/A   Clear
3:20 AM 54.0 °F 52.0 °F 93% 29.99 in 10.0 mi East 3.5 mph - N/A   Scattered Clouds
3:29 AM 55.0 °F 53.1 °F 93% 29.98 in 10.0 mi East 6.9 mph - N/A   Mostly Cloudy
3:53 AM 55.9 °F 53.1 °F 90% 29.96 in 10.0 mi East 8.1 mph - N/A   Overcast
4:02 AM 57.0 °F 54.0 °F 89% 29.97 in 10.0 mi East 6.9 mph - N/A   Overcast
4:53 AM 57.0 °F 55.0 °F 93% 29.95 in 3.0 mi East 9.2 mph - N/A   Overcast
5:09 AM 57.0 °F 55.0 °F 93% 29.98 in 2.5 mi East 8.1 mph - N/A   Overcast
5:19 AM 57.0 °F 55.0 °F 93% 29.98 in 1.0 mi East 6.9 mph - N/A   Overcast
5:29 AM 57.0 °F 55.0 °F 93% 29.98 in 0.8 mi East 5.8 mph - N/A   Mist
5:50 AM 57.2 °F 55.4 °F 94% 29.97 in 1.0 mi ENE 8.1 mph - N/A   Mist
5:53 AM 57.0 °F 55.0 °F 93% 29.96 in 1.2 mi ENE 8.1 mph - N/A   Overcast
6:04 AM 57.0 °F 55.0 °F 93% 29.97 in 3.0 mi East 9.2 mph - N/A   Overcast
6:43 AM 57.9 °F 55.0 °F 90% 29.98 in 6.0 mi East 9.2 mph - N/A   Overcast
6:53 AM 59.0 °F 55.0 °F 87% 29.96 in 7.0 mi East 10.4 mph - N/A   Overcast
7:53 AM 59.0 °F 55.0 °F 87% 29.96 in 9.0 mi East 12.7 mph - N/A   Overcast
8:37 AM 61.0 °F 54.0 °F 78% 29.97 in 10.0 mi East 10.4 mph - N/A   Overcast
8:53 AM 61.0 °F 55.0 °F 81% 29.97 in 10.0 mi East 9.2 mph - N/A   Overcast
9:03 AM 61.0 °F 55.0 °F 81% 29.98 in 10.0 mi East 9.2 mph - N/A   Overcast
9:43 AM 64.0 °F 55.0 °F 73% 29.97 in 10.0 mi East 10.4 mph - N/A   Overcast
9:53 AM 64.0 °F 55.0 °F 73% 29.97 in 10.0 mi East 11.5 mph - N/A   Overcast
10:53 AM 68.0 °F 55.0 °F 63% 29.95 in 10.0 mi ESE 10.4 mph - N/A   Overcast
11:53 AM 71.1 °F 55.0 °F 57% 29.94 in 10.0 mi ESE 5.8 mph 20.7 mph N/A   Mostly Cloudy
12:53 PM 73.9 °F 51.1 °F 45% 29.91 in 10.0 mi SE 10.4 mph - N/A   Clear
1:53 PM 77.0 °F 50.0 °F 39% 29.89 in 10.0 mi SE 6.9 mph - N/A   Clear
2:53 PM 80.1 °F 50.0 °F 35% 29.85 in 10.0 mi SE 9.2 mph 17.3 mph N/A   Clear
3:53 PM 81.0 °F 50.0 °F 34% 29.83 in 10.0 mi ESE 11.5 mph 19.6 mph N/A   Clear
4:53 PM 81.0 °F 48.9 °F 33% 29.81 in 10.0 mi ESE 12.7 mph 19.6 mph N/A   Clear
5:53 PM 81.0 °F 50.0 °F 34% 29.80 in 10.0 mi ESE 10.4 mph 19.6 mph N/A   Clear
6:53 PM 79.0 °F 50.0 °F 36% 29.79 in 10.0 mi ESE 12.7 mph - N/A   Clear
7:53 PM 75.0 °F 50.0 °F 41% 29.80 in 10.0 mi ESE 12.7 mph - N/A   Clear
8:53 PM 72.0 °F 50.0 °F 46% 29.81 in 10.0 mi ESE 10.4 mph - N/A   Clear
9:53 PM 69.1 °F 50.0 °F 51% 29.82 in 10.0 mi East 9.2 mph - N/A   Clear
10:53 PM 62.1 °F 50.0 °F 65% 29.83 in 10.0 mi ENE 9.2 mph - N/A   Clear
11:53 PM 60.1 °F 50.0 °F 69% 29.82 in 10.0 mi ENE 8.1 mph - N/A   Clear